Location: Crab Orchard
(37.7292°N, 88.8042°W)
Time: 02:15:18
(UTC+00:00)

CZ-4 R/B - Pass Details

Date: 08 December 2019
Orbit: 533 x 598 km, 97.7° (Epoch: 22 January)

Event Time Altitude Azimuth Distance (km) Brightness Sun altitude
Rises 23:27:06 0° 135° (SE) 2,723 4.6 -10.0°
Reaches altitude 10° 23:29:37 10° 119° (ESE) 1,822 3.6 -10.4°
Maximum altitude 23:32:35 21° 70° (ENE) 1,259 2.5 -11.0°
Drops below altitude 10° 23:35:32 10° 20° (NNE) 1,809 3.6 -11.5°
Sets 23:38:01 0° 4° (N) 2,697 4.6 -12.0°
